Flag for Argentina Weather past 2 weeks in Mendoza, Mendoza, Argentina

Now
64 °F

Partly sunny.


Feels Like: 64 °F
Forecast: 53 / 68 °F
Wind: 5 mph from Northeast

Location: Mendoza Aerodrome

Current Time: Aug 22, 2014 at 1:12:58 PM

Latest Report: Aug 22, 2014 at 1:00 PM


Visibility: N/A

Pressure: 29.89 "Hg

Humidity: 37%

Dew point: 37 °F

Location of MendozaLocation

Historic Weather in Mendoza — Graph

°F

Mendoza temperature yesterday

Maximum temperature yesterday: 77 °F (at 3:00 PM)
Minimum temperature yesterday: 52 °F (at 8:00 AM)
Average temperature yesterday: 67 °F

Past Weeks' High & Low Weather Summary

 TemperatureHumidityPressure
High84 °F (Aug 19, 4:00 PM)100% (Aug 20, 2:00 PM)30.45 "Hg (Aug 20, 2:00 PM)
Low34 °F (Aug 13, 7:00 AM)12% (Aug 13, 4:00 PM)29.74 "Hg (Aug 9, 4:00 PM)
Average56 °F40%30.05 "Hg
* Reported Aug 7 12:00 Noon — Aug 22 12:00 Noon, Mendoza, Weather by CustomWeather, © 2014

Note: Actual official high and low records may vary slightly from our data, if they occured in-between our weather recording intervals... More about our weather records

Advertising

Mendoza weather history for previous 24 hours

 ConditionsComfort  
Time TempWeatherWind HumidityBarometerVisibility
12:00 PM
Aug 22
64 °FPartly sunny.2 mph40%29.92 "HgN/A
11:00 AM63 °FScattered clouds.3 mph39%29.92 "HgN/A
10:00 AM61 °FScattered clouds.No wind48%29.95 "HgN/A
9:00 AM55 °FPassing clouds.No wind55%29.95 "HgN/A
8:00 AM57 °FScattered clouds.No wind51%29.95 "HgN/A
7:00 AM57 °FClear.6 mph51%29.95 "Hg10 mi
6:00 AM57 °FClear.5 mph59%29.95 "Hg10 mi
5:00 AM57 °FClear.7 mph63%29.95 "Hg10 mi
4:00 AM57 °FClear.5 mph63%29.95 "Hg10 mi
3:00 AM59 °FClear.3 mph63%29.98 "Hg10 mi
2:00 AM61 °FClear.5 mph59%29.98 "Hg10 mi
1:00 AM64 °FClear.7 mph49%30.01 "Hg10 mi
12:00 AM66 °FClear.9 mph43%29.98 "Hg10 mi
11:00 PM
Aug 21
68 °FClear.7 mph40%29.98 "Hg10 mi
10:00 PM66 °FClear.2 mph49%29.92 "Hg10 mi
9:00 PM70 °FClear.3 mph46%29.89 "Hg10 mi
8:00 PM72 °FClear.No wind47%29.86 "Hg10 mi
7:00 PM75 °FClear.3 mph36%29.83 "Hg10 mi
6:00 PM77 °FSunny.6 mph32%29.83 "Hg10 mi
5:00 PM77 °FSunny.6 mph32%29.80 "Hg10 mi
4:00 PM77 °FSunny.6 mph34%29.83 "Hg10 mi
3:00 PM77 °FSunny.6 mph32%29.86 "Hg10 mi
2:00 PM75 °FSunny.6 mph36%29.89 "Hg10 mi
1:00 PM73 °FSunny.6 mph36%29.89 "Hg10 mi
Weather by CustomWeather, © 2014

See weather overviewHow to use our weather pages